This is the latest recevied weather packets stored in our database for station/object KD6VEX-1. If no packets are shown the sender has not sent any weather packets the latest 10 day(s).
| Time | Temp. | Humidity | Pressure | Rain* | Wind** | Luminosity | Snow |
|---|---|---|---|---|---|---|---|
| 1777241815 | 18.89° C | 49% | 1014.1 hPa | 0 mm | - | - | - |
| 1777241515 | 19.44° C | 48% | 1014.3 hPa | 0 mm | - | - | - |
| 1777241215 | 18.33° C | 50% | 1014.4 hPa | 0 mm | - | - | - |
| 1777240915 | 17.78° C | 51% | 1014.4 hPa | 0 mm | - | - | - |
| 1777240615 | 17.78° C | 51% | 1014.4 hPa | 0 mm | - | - | - |
| 1777240315 | 17.78° C | 49% | 1014.4 hPa | 0 mm | - | - | - |
| 1777240015 | 18.33° C | 49% | 1014.4 hPa | 0 mm | - | - | - |
| 1777239715 | 18.33° C | 51% | 1014.4 hPa | 0 mm | - | - | - |
| 1777239415 | 18.33° C | 50% | 1014.4 hPa | 0 mm | - | - | - |
| 1777239115 | 18.33° C | 53% | 1014.4 hPa | 0 mm | - | - | - |
| 1777238815 | 17.78° C | 51% | 1014.4 hPa | 0 mm | - | - | - |
| 1777238515 | 17.78° C | 50% | 1014.4 hPa | 0 mm | - | - | - |
| 1777238215 | 17.78° C | 51% | 1014.5 hPa | 0 mm | - | - | - |
| 1777237915 | 17.78° C | 54% | 1014.5 hPa | 0 mm | - | - | - |
| 1777237615 | 17.22° C | 55% | 1014.4 hPa | 0 mm | - | - | - |
| 1777237315 | 17.22° C | 55% | 1014.4 hPa | 0 mm | - | - | - |
| 1777237015 | 17.22° C | 56% | 1014.4 hPa | 0 mm | - | - | - |
| 1777236715 | 16.11° C | 57% | 1014.4 hPa | 0 mm | - | - | - |
| 1777236415 | 16.11° C | 57% | 1014.4 hPa | 0 mm | - | - | - |
| 1777236115 | 16.11° C | 58% | 1014.4 hPa | 0 mm | - | - | - |
| 1777235815 | 16.11° C | 60% | 1014.4 hPa | 0 mm | - | - | - |
| 1777235515 | 16.67° C | 59% | 1014.4 hPa | 0 mm | - | - | - |
| 1777235215 | 16.67° C | 60% | 1014.3 hPa | 0 mm | - | - | - |
| 1777234915 | 16.67° C | 62% | 1014.3 hPa | 0 mm | - | - | - |
| 1777234615 | 16.67° C | 63% | 1014.3 hPa | 0 mm | - | - | - |
* Rain latest hour (hover to see other rain measurements)
** Current wind speed in m/s (hover to see current wind gust speed)